FW4844 Weather Reports


Display with metric or nautical units.
time (UTC)temp
F
wind
direction
speed
MPH
gust
MPH
rain 1hr
in
rain 24hr
in
rain mn
in
humidity
%
barometer
mb
20260510212740 56 238 10.0 25.0 0.00 0.22 0.21 33 1011.2
20260510212233 57 270 9.0 19.0 0.00 0.22 0.21 33 1011.1
20260510211954 57 229 10.0 20.0 0.00 0.22 0.21 35 1010.9
20260510211219 57 246 10.0 20.0 0.00 0.22 0.21 35 1010.8
20260510210711 57 238 11.0 23.0 0.00 0.22 0.21 35 1010.8
20260510210204 57 234 11.0 23.0 0.00 0.22 0.21 33 1010.7
20260510205915 58 235 10.0 22.0 0.00 0.22 0.21 34 1010.6
20260510205148 58 250 9.0 17.0 0.00 0.22 0.21 35 1010.5
20260510204641 58 232 10.0 20.0 0.00 0.22 0.21 35 1010.2
20260510204130 58 291 10.0 21.0 0.00 0.22 0.21 35 1010.2
20260510203623 58 252 11.0 26.0 0.00 0.22 0.21 36 1010.0
20260510203116 59 205 10.0 26.0 0.00 0.22 0.21 35 1010.1
20260510202606 60 229 7.0 24.0 0.00 0.22 0.21 36 1010.1
20260510202059 59 205 8.0 23.0 0.00 0.22 0.21 34 1009.9
20260510201551 59 246 11.0 23.0 0.00 0.22 0.21 34 1009.9
20260510201043 60 265 10.0 23.0 0.00 0.22 0.21 34 1009.9
20260510200535 60 265 10.0 24.0 0.00 0.22 0.21 35 1009.9
20260510200253 60 244 9.0 24.0 0.00 0.22 0.21 34 1009.8
20260510195520 60 303 9.0 25.0 0.00 0.22 0.21 37 1009.8
20260510195234 60 322 9.0 22.0 0.00 0.22 0.21 35 1009.8
20260510194508 60 209 10.0 26.0 0.00 0.22 0.21 36 1009.9
20260510193958 60 267 11.0 26.0 0.00 0.22 0.21 37 1009.9
20260510193451 61 235 9.0 24.0 0.00 0.22 0.21 36 1009.9
20260510192946 61 313 8.0 19.0 0.00 0.22 0.21 39 1009.8
20260510192436 60 239 6.0 15.0 0.00 0.22 0.21 36 1009.8
20260510191931 61 346 8.0 19.0 0.00 0.22 0.21 39 1009.8
20260510191430 60 262 11.0 25.0 0.00 0.22 0.21 37 1009.8
20260510190927 60 242 12.0 25.0 0.00 0.22 0.21 37 1009.9
20260510190427 60 311 11.0 21.0 0.00 0.22 0.21 42 1009.8
20260510185927 59 292 11.0 21.0 0.00 0.22 0.21 38 1009.8
20260510185427 60 274 9.0 19.0 0.00 0.22 0.21 41 1009.8
20260510184927 61 232 6.0 15.0 0.00 0.22 0.21 43 1009.7
20260510184427 60 229 9.0 17.0 0.00 0.22 0.21 41 1009.7
20260510183928 59 238 10.0 19.0 0.00 0.22 0.21 42 1009.7
20260510183428 59 238 9.0 19.0 0.00 0.22 0.21 41 1009.7
20260510182927 59 219 7.0 16.0 0.00 0.22 0.21 45 1009.7
20260510182427 59 288 7.0 16.0 0.00 0.22 0.21 43 1009.7
20260510181926 58 234 8.0 16.0 0.00 0.22 0.21 47 1009.7
20260510181427 57 208 9.0 17.0 0.00 0.22 0.21 45 1009.8
20260510180927 58 227 7.0 17.0 0.00 0.22 0.21 46 1009.8
20260510180653 57 249 8.0 15.0 0.00 0.22 0.21 52 1009.8
20260510175919 58 248 8.0 15.0 0.00 0.22 0.21 52 1009.8
20260510175419 58 246 8.0 16.0 0.00 0.22 0.21 50 1009.8
20260510174922 58 243 10.0 21.0 0.00 0.22 0.21 48 1009.7
20260510174420 58 244 12.0 21.0 0.00 0.22 0.21 52 1009.7
20260510173919 58 238 10.0 19.0 0.00 0.22 0.21 50 1009.7
20260510173419 58 347 8.0 18.0 0.00 0.22 0.21 50 1009.7
20260510173136 58 252 9.0 18.0 0.00 0.22 0.21 50 1009.7
20260510172419 57 214 10.0 22.0 0.00 0.22 0.21 51 1009.8
20260510171920 56 244 11.0 25.0 0.00 0.22 0.21 54 1009.8
20260510171419 56 219 10.0 25.0 0.00 0.22 0.21 52 1009.8
20260510170923 56 319 10.0 20.0 0.00 0.22 0.21 57 1009.8
20260510165918 55 241 12.0 25.0 0.00 0.22 0.21 52 1009.9
20260510165418 55 233 13.0 25.0 0.00 0.22 0.21 53 1009.9
20260510164912 55 223 13.0 25.0 0.00 0.22 0.21 52 1010.0
20260510164408 55 266 11.0 22.0 0.00 0.22 0.21 54 1009.9
20260510163903 54 279 10.0 22.0 0.00 0.22 0.21 54 1009.8
20260510163402 55 247 8.0 21.0 0.00 0.22 0.21 53 1009.8
20260510162903 55 294 8.0 17.0 0.00 0.22 0.21 56 1009.9
20260510162403 55 215 8.0 16.0 0.00 0.22 0.21 61 1009.8
20260510162121 54 216 8.0 16.0 0.00 0.22 0.21 64 1009.8
20260510161404 54 286 9.0 23.0 0.00 0.22 0.21 63 1009.9
20260510160904 53 239 8.0 23.0 0.00 0.22 0.21 66 1009.9
20260510160403 53 246 7.0 22.0 0.00 0.22 0.21 66 1009.8
20260510155903 53 236 6.0 13.0 0.00 0.22 0.21 73 1009.8
20260510155403 53 260 6.0 15.0 0.00 0.22 0.21 76 1009.7
20260510154903 52 234 7.0 15.0 0.00 0.22 0.21 75 1009.7
20260510154403 51 298 7.0 13.0 0.00 0.22 0.21 76 1009.7
20260510154124 50 217 8.0 14.0 0.00 0.22 0.21 78 1009.7
20260510153403 49 339 9.0 19.0 0.00 0.22 0.21 78 1009.7
20260510152857 49 275 10.0 19.0 0.00 0.22 0.21 85 1009.9
20260510152618 49 259 9.0 17.0 0.00 0.22 0.21 86 1009.9
20260510151851 48 234 6.0 17.0 0.00 0.22 0.21 89 1009.9
20260510151351 46 221 5.0 13.0 0.00 0.22 0.21 92 1009.8
20260510150851 46 235 6.0 13.0 0.00 0.22 0.21 92 1009.7
20260510150349 45 273 7.0 13.0 0.00 0.22 0.21 93 1009.7
20260510145849 45 234 6.0 15.0 0.00 0.22 0.21 94 1009.6
20260510145614 45 290 6.0 15.0 0.00 0.22 0.21 95 1009.6
20260510144848 45 260 6.0 14.0 0.00 0.22 0.21 96 1009.6
20260510144349 45 229 6.0 15.0 0.00 0.22 0.21 96 1009.6
20260510143849 45 271 6.0 16.0 0.00 0.22 0.21 97 1009.6
20260510143611 45 281 6.0 16.0 0.00 0.22 0.21 97 1009.6
20260510142851 45 244 6.0 15.0 0.01 0.22 0.21 97 1009.4
20260510142349 45 355 7.0 18.0 0.02 0.22 0.21 97 1009.5
20260510142118 45 287 7.0 20.0 0.04 0.22 0.21 98 1009.3
20260510141347 46 317 6.0 20.0 0.05 0.22 0.21 98 1009.4
20260510140846 46 242 5.0 12.0 0.05 0.22 0.21 98 1009.3
20260510135845 43 283 6.0 17.0 0.06 0.22 0.21 97 1009.2
20260510135345 43 257 7.0 16.0 0.06 0.22 0.21 97 1009.1
20260510134845 45 246 6.0 16.0 0.06 0.22 0.21 98 1009.0
20260510134345 48 236 3.0 15.0 0.06 0.22 0.21 98 1008.9
20260510133845 49 281 3.0 8.0 0.06 0.22 0.21 98 1008.7
20260510133345 49 232 3.0 6.0 0.06 0.22 0.21 98 1008.6
20260510132845 48 229 4.0 8.0 0.05 0.21 0.20 98 1008.5
20260510132612 48 238 4.0 9.0 0.04 0.20 0.19 98 1008.5
20260510132107 48 220 4.0 9.0 0.02 0.18 0.18 98 1008.5
20260510131345 48 220 3.0 8.0 0.01 0.17 0.16 98 1008.6
20260510130845 48 210 3.0 6.0 0.01 0.17 0.16 98 1008.4
20260510130345 48 226 2.0 6.0 0.00 0.16 0.15 98 1008.5
20260510125845 48 190 2.0 4.0 0.00 0.16 0.15 98 1008.4
20260510125347 48 211 2.0 5.0 0.00 0.16 0.15 98 1008.0
20260510124844 48 212 3.0 5.0 0.00 0.16 0.15 98 1008.1
20260510124345 48 209 2.0 5.0 0.00 0.16 0.15 98 1008.2
20260510123845 48 217 2.0 4.0 0.00 0.16 0.15 98 1008.2
20260510123345 48 224 2.0 4.0 0.00 0.16 0.15 98 1008.0
20260510122845 48 225 2.0 5.0 0.00 0.16 0.15 98 1008.0
20260510122345 47 229 3.0 6.0 0.00 0.16 0.15 98 1008.1
20260510121845 47 227 2.0 6.0 0.00 0.16 0.15 98 1008.1
20260510121345 47 208 1.0 4.0 0.00 0.16 0.15 98 1008.0
20260510120844 47 179 0.0 2.0 0.00 0.16 0.15 98 1007.9
20260510120344 47 179 0.0 2.0 0.00 0.16 0.15 98 1007.8
20260510115845 47 179 1.0 2.0 0.00 0.16 0.15 98 1007.9
20260510115606 47 179 1.0 2.0 0.00 0.16 0.15 98 1007.9
20260510114844 47 179 1.0 3.0 0.00 0.16 0.15 98 1007.9
20260510114605 47 179 0.0 3.0 0.00 0.16 0.15 98 1008.0
20260510113844 46 178 0.0 2.0 0.00 0.16 0.15 98 1008.1
20260510113343 46 178 1.0 3.0 0.00 0.16 0.15 98 1008.0
20260510113113 46 178 2.0 3.0 0.00 0.16 0.15 98 1007.9
20260510112342 46 178 2.0 3.0 0.00 0.16 0.15 98 1007.7
20260510111840 46 175 1.0 3.0 0.00 0.16 0.15 98 1007.7
20260510111342 46 173 0.0 1.0 0.00 0.16 0.15 98 1007.6
20260510110842 46 173 0.0 2.0 0.00 0.16 0.15 98 1007.4
20260510110339 46 173 1.0 2.0 0.00 0.16 0.15 98 1007.4
20260510105837 46 173 0.0 2.0 0.00 0.16 0.15 98 1007.4
20260510105337 45 172 0.0 2.0 0.00 0.16 0.15 98 1007.4
20260510104836 45 173 0.0 2.0 0.00 0.16 0.15 98 1007.3
20260510104337 45 173 0.0 1.0 0.00 0.16 0.15 98 1007.1
20260510104059 45 173 0.0 2.0 0.00 0.16 0.15 98 1007.1
20260510103054 44 173 1.0 5.0 0.00 0.16 0.15 98 1006.9
20260510101830 45 286 1.0 3.0 0.00 0.16 0.15 98 1006.9
20260510101328 44 286 1.0 4.0 0.00 0.16 0.15 98 1006.8
20260510100821 44 287 2.0 4.0 0.00 0.16 0.15 98 1006.6
20260510100318 43 289 3.0 8.0 0.00 0.16 0.15 98 1006.7
20260510095819 43 235 2.0 8.0 0.00 0.16 0.15 98 1006.8
20260510095318 42 251 2.0 4.0 0.00 0.16 0.15 98 1006.7
20260510094818 43 271 2.0 4.0 0.00 0.16 0.15 98 1006.7
20260510094319 43 271 2.0 4.0 0.00 0.16 0.15 98 1006.6
20260510093819 44 227 2.0 5.0 0.00 0.16 0.15 98 1006.4
20260510093537 44 226 2.0 5.0 0.00 0.16 0.15 98 1006.0
20260510093036 44 242 2.0 5.0 0.00 0.16 0.15 98 1006.1
20260510092316 44 244 2.0 5.0 0.00 0.16 0.15 98 1006.2
20260510091816 44 247 2.0 4.0 0.00 0.16 0.15 98 1006.5
20260510091314 44 246 2.0 3.0 0.00 0.16 0.15 98 1006.5
20260510090814 44 246 1.0 3.0 0.00 0.16 0.15 98 1006.4
20260510090316 45 246 1.0 3.0 0.00 0.16 0.15 98 1006.4
20260510085813 44 246 0.0 2.0 0.00 0.16 0.15 98 1006.4
20260510085313 44 246 0.0 1.0 0.00 0.16 0.15 98 1006.4
20260510084807 44 246 1.0 3.0 0.00 0.16 0.15 98 1006.2
20260510084521 45 246 1.0 3.0 0.00 0.16 0.15 98 1006.1
20260510083751 44 246 2.0 4.0 0.00 0.16 0.15 98 1006.1
20260510083511 43 247 1.0 3.0 0.00 0.16 0.15 98 1006.0
20260510082739 43 282 0.0 2.0 0.00 0.16 0.15 98 1006.0
20260510082229 43 282 0.0 2.0 0.00 0.16 0.15 98 1005.9
20260510081723 43 282 0.0 2.0 0.00 0.16 0.15 98 1006.0
20260510081219 43 282 0.0 2.0 0.00 0.16 0.15 98 1005.9
20260510080159 44 282 1.0 3.0 0.00 0.16 0.15 98 1005.7
20260510075653 44 282 1.0 2.0 0.00 0.16 0.15 98 1005.5
20260510075143 45 282 0.0 1.0 0.00 0.16 0.15 98 1005.6
20260510074637 45 282 0.0 2.0 0.00 0.16 0.15 98 1005.7
20260510074132 45 282 1.0 2.0 0.01 0.16 0.15 98 1005.7
20260510073622 46 282 1.0 3.0 0.01 0.16 0.15 98 1005.8
20260510073116 46 282 2.0 3.0 0.03 0.16 0.15 98 1005.8
20260510072609 46 282 1.0 2.0 0.03 0.16 0.15 98 1006.2
20260510072059 46 282 1.0 2.0 0.04 0.16 0.15 98 1006.5
20260510071814 46 282 1.0 2.0 0.04 0.16 0.15 98 1006.5
20260510071048 46 282 0.0 1.0 0.07 0.16 0.15 98 1006.4
20260510070537 47 282 0.0 1.0 0.08 0.16 0.15 98 1006.5
20260510070031 47 282 1.0 2.0 0.10 0.16 0.15 98 1006.2
20260510065747 47 282 0.0 2.0 0.10 0.16 0.15 98 1006.2
20260510065016 47 283 1.0 3.0 0.11 0.16 0.15 98 1006.4
20260510064509 47 283 2.0 5.0 0.12 0.16 0.15 98 1006.4
20260510064003 47 288 2.0 5.0 0.12 0.15 0.14 98 1006.5
20260510063452 47 265 2.0 5.0 0.12 0.14 0.13 98 1006.5
20260510062947 47 217 2.0 5.0 0.11 0.13 0.12 98 1006.4
20260510062440 47 217 2.0 5.0 0.11 0.12 0.12 98 1006.4
20260510062150 47 215 3.0 5.0 0.11 0.12 0.11 98 1006.6
20260510061424 47 234 3.0 8.0 0.10 0.11 0.11 98 1006.7
20260510060918 47 225 4.0 8.0 0.08 0.09 0.08 98 1006.8
20260510060407 47 257 4.0 10.0 0.07 0.08 0.07 98 1006.7
20260510055902 47 242 3.0 9.0 0.05 0.06 0.05 98 1006.6
20260510055618 47 246 2.0 4.0 0.05 0.06 0.05 98 1006.5
20260510054846 47 225 2.0 5.0 0.04 0.05 0.04 98 1006.4
20260510054340 47 226 3.0 5.0 0.03 0.04 0.03 98 1006.4
20260510053323 47 212 3.0 7.0 0.01 0.02 0.01 98 1006.2
20260510052822 47 202 3.0 7.0 0.01 0.02 0.01 98 1006.2
20260510052322 47 228 4.0 7.0 0.00 0.01 0.00 98 1006.2
20260510051822 47 223 4.0 7.0 0.00 0.01 0.00 98 1006.1
20260510051322 47 221 4.0 7.0 0.00 0.01 0.00 98 1006.2
20260510050822 47 210 3.0 7.0 0.00 0.01 0.00 98 1006.1
20260510050322 47 184 3.0 7.0 0.00 0.01 0.00 98 1006.1
20260510050045 47 203 2.0 6.0 0.00 0.01 0.00 98 1006.2
20260510045322 47 211 3.0 5.0 0.00 0.01 0.00 98 1006.4
20260510044822 47 229 3.0 5.0 0.00 0.01 0.00 98 1006.2
20260510044322 47 202 3.0 5.0 0.00 0.01 0.00 98 1006.4
20260510043822 47 192 2.0 5.0 0.00 0.01 0.00 98 1006.2
20260510043322 47 218 3.0 8.0 0.00 0.01 0.00 98 1006.2
20260510042823 47 219 3.0 8.0 0.00 0.01 0.00 98 1006.4
20260510042323 47 205 4.0 10.0 0.00 0.01 0.00 98 1006.4
20260510041813 47 207 4.0 10.0 0.00 0.01 0.00 98 1006.2
20260510041306 47 215 4.0 9.0 0.00 0.01 0.00 98 1006.2
20260510040801 47 185 3.0 9.0 0.00 0.01 0.00 98 1006.1
20260510040251 47 200 4.0 10.0 0.00 0.01 0.00 98 1006.2
20260510035745 47 163 4.0 10.0 0.00 0.01 0.01 98 1006.4
20260510035239 47 186 3.0 7.0 0.00 0.01 0.01 98 1006.4
20260510034952 47 173 3.0 9.0 0.00 0.01 0.01 98 1006.2
20260510034443 47 170 3.0 8.0 0.00 0.01 0.01 98 1006.0
20260510033717 47 187 3.0 7.0 0.00 0.01 0.01 98 1005.8
20260510033207 47 153 3.0 6.0 0.00 0.01 0.01 98 1005.8
20260510032701 47 166 3.0 6.0 0.00 0.01 0.01 98 1005.8
20260510032155 47 144 3.0 8.0 0.00 0.01 0.01 98 1005.9
20260510031650 47 162 3.0 8.0 0.00 0.01 0.01 98 1005.9
20260510031148 47 163 3.0 7.0 0.00 0.01 0.01 98 1005.8
20260510030908 47 146 3.0 7.0 0.00 0.01 0.01 98 1006.0
20260510030144 47 194 3.0 7.0 0.00 0.01 0.01 98 1006.1
20260510025642 47 190 2.0 8.0 0.00 0.01 0.01 98 1006.2
20260510025140 46 186 2.0 8.0 0.00 0.01 0.01 98 1006.4
20260510024640 46 196 3.0 7.0 0.00 0.01 0.01 98 1006.4
20260510024140 46 200 4.0 11.0 0.00 0.01 0.01 98 1006.2
20260510023904 46 197 4.0 11.0 0.00 0.01 0.01 98 1006.2
20260510023138 46 212 3.0 7.0 0.00 0.01 0.01 98 1006.1
20260510022638 46 202 2.0 7.0 0.00 0.01 0.01 98 1006.2
20260510022138 46 174 2.0 8.0 0.00 0.01 0.01 98 1006.2
20260510021638 46 180 3.0 9.0 0.00 0.01 0.01 98 1006.2
20260510021136 46 168 3.0 9.0 0.00 0.01 0.01 98 1006.5
20260510020633 46 161 2.0 6.0 0.00 0.01 0.01 98 1006.4
20260510020134 45 166 2.0 6.0 0.00 0.01 0.01 98 1006.4
20260510015629 45 192 1.0 3.0 0.00 0.01 0.01 98 1006.5
20260510015122 45 195 1.0 3.0 0.00 0.01 0.01 98 1006.5
20260510014612 45 194 0.0 2.0 0.00 0.01 0.01 98 1006.5
20260510014106 45 194 0.0 2.0 0.00 0.01 0.01 98 1006.2
20260510013559 45 194 0.0 2.0 0.00 0.01 0.01 97 1006.2
20260510013054 45 194 0.0 2.0 0.00 0.01 0.01 97 1006.2
20260510012552 45 194 1.0 2.0 0.00 0.01 0.01 97 1006.4
20260510012052 45 194 0.0 2.0 0.00 0.01 0.01 97 1006.4
20260510011552 45 194 0.0 2.0 0.00 0.01 0.01 97 1006.4
20260510011052 45 194 0.0 1.0 0.00 0.01 0.01 97 1006.5
20260510010550 45 194 0.0 1.0 0.00 0.01 0.01 98 1006.2
20260510010050 45 194 0.0 1.0 0.00 0.01 0.01 97 1006.2
20260510005550 45 194 0.0 1.0 0.00 0.01 0.01 98 1006.2
20260510005050 45 194 0.0 2.0 0.00 0.01 0.01 97 1006.4
20260510004551 45 194 0.0 2.0 0.00 0.01 0.01 97 1006.4
20260510004049 45 194 1.0 3.0 0.00 0.01 0.01 97 1006.2
20260510003549 45 194 1.0 3.0 0.00 0.01 0.01 97 1006.1
20260510002542 45 198 0.0 2.0 0.00 0.01 0.01 97 1006.2
20260510002043 45 198 1.0 3.0 0.00 0.01 0.01 97 1006.4
20260510001543 45 198 1.0 3.0 0.00 0.01 0.01 97 1006.4
20260510001040 45 199 1.0 3.0 0.00 0.01 0.01 97 1006.5
20260510000541 45 199 1.0 2.0 0.00 0.01 0.01 97 1006.5
20260510000305 45 199 1.0 3.0 0.00 0.01 0.01 97 1006.5
20260509235803 45 199 1.0 3.0 0.00 0.01 0.01 97 1006.4
20260509235041 45 199 1.0 2.0 0.00 0.01 0.01 97 1006.4
20260509234541 45 199 1.0 2.0 0.00 0.01 0.01 97 1006.2
20260509234040 45 199 0.0 3.0 0.00 0.01 0.01 97 1006.1
20260509233539 45 199 0.0 3.0 0.00 0.01 0.01 97 1006.1
20260509233039 45 199 0.0 4.0 0.00 0.01 0.01 97 1006.0
20260509232539 45 199 0.0 4.0 0.00 0.01 0.01 97 1006.0
20260509232039 45 199 0.0 1.0 0.00 0.01 0.01 97 1005.9
20260509231539 45 199 0.0 2.0 0.00 0.01 0.01 97 1006.0
20260509231040 45 199 1.0 2.0 0.00 0.01 0.01 97 1006.0
20260509230539 45 199 1.0 2.0 0.00 0.01 0.01 97 1006.0
20260509230040 45 199 0.0 1.0 0.00 0.01 0.01 97 1006.0
20260509225539 45 199 0.0 1.0 0.00 0.01 0.01 97 1006.0
20260509225039 45 199 1.0 3.0 0.00 0.01 0.01 97 1006.0
20260509224806 45 199 2.0 5.0 0.01 0.01 0.01 97 1006.0
20260509224039 45 199 2.0 5.0 0.01 0.01 0.01 97 1005.9
20260509223540 45 209 2.0 9.0 0.01 0.01 0.01 97 1005.9
20260509223041 45 188 2.0 9.0 0.01 0.01 0.01 97 1005.9
20260509222539 45 194 1.0 4.0 0.01 0.01 0.01 97 1006.0
20260509222037 45 157 1.0 5.0 0.01 0.01 0.01 97 1006.0
20260509221536 45 150 2.0 6.0 0.01 0.01 0.01 97 1006.0
20260509221035 44 166 2.0 6.0 0.01 0.01 0.01 97 1006.2
20260509220535 44 191 1.0 4.0 0.01 0.01 0.01 97 1006.1
20260509220034 44 190 2.0 4.0 0.01 0.01 0.01 97 1006.2
20260509215759 44 190 2.0 3.0 0.01 0.01 0.01 97 1006.4
20260509215034 44 192 1.0 3.0 0.01 0.01 0.01 97 1006.5
20260509214531 44 174 0.0 2.0 0.00 0.00 0.00 97 1006.5
20260509214031 44 174 0.0 2.0 0.00 0.00 0.00 97 1006.5
20260509213800 44 174 0.0 3.0 0.00 0.00 0.00 97 1006.5
20260509213029 44 174 1.0 3.0 0.00 0.00 0.00 97 1006.6